Regional Weather Roundup
Issued by NWS

Home | Current Version | Previous Version | Graphics & Text | Print | Product List | Glossary On
Versions: 1 2 3 4 5 6 7 8 9 10 11 12 13 14 15 16 17 18 19 20 21 22 23 24 25 26 27 28 29 30 31 32 33 34 35 36 37 38 39 40 41 42 43 44 45 46 47 48 49 50
000
ASUS45 KTFX 271110
RWRMT
MONTANA REGIONAL WEATHER ROUNDUP
NATIONAL WEATHER SERVICE GREAT FALLS MT
500 AM MDT MON JUL 27 2015

NOTE: "FAIR" INDICATES FEW OR NO CLOUDS BELOW 12000 FEET WITH NO
SIGNIFICANT WEATHER AND/OR OBSTRUCTIONS TO VISIBILITY.

MTZ001>007-043-271200-
WEST OF THE DIVIDE

CITY           SKY/WX    TMP DP  RH WIND       PRES   REMARKS
KALISPELL      CLOUDY    50  40  68 CALM      29.93S
MISSOULA       LGT RAIN  53  50  89 NW6       29.97R
BUTTE          CLOUDY    54  42  64 NW12      29.97R
MULLAN PASS    CLOUDY    44  34  67 CALM      30.02S
DEER LODGE       N/A     52  48  87 NE3       30.00
EUREKA           N/A     48  43  81 CALM      29.96R
HAMILTON         N/A     54  52  94 NW3       29.95R
LIBBY            N/A     48  41  76 CALM      29.96F
PLAINS           N/A     56  43  61 CALM      29.95S
RONAN            N/A     58  45  62 NE2       30.00R
$$

MTZ008-052>055-271200-
SOUTHWEST MONTANA

CITY           SKY/WX    TMP DP  RH WIND       PRES   REMARKS
BOZEMAN        LGT RAIN  56  52  86 N9G17     29.87F
DILLON         CLOUDY    54  47  77 SE7       29.90R
W YELLOWSTONE  MOCLDY    46  41  81 CALM      29.95F
TWIN BRIDGES     N/A     56  46  69 N21       29.86F
$$

MTZ009-010-012-014-046-048-049-054-271200-
EAST SLOPES AND CENTRAL MONTANA

CITY           SKY/WX    TMP DP  RH WIND       PRES   REMARKS
CUT BANK       CLOUDY    49  44  83 W6        29.94S
GREAT FALLS    CLOUDY    53  51  93 W8        29.91F
MALMSTROM AFB  CLOUDY    56  52  87 W13       29.91F
HELENA         CLOUDY    59  48  67 W10       29.91F
CONRAD           N/A     54  52  93 W2        29.95F
$$

MTZ011-013-016-021-045-047-050-051-271200-
NORTH CENTRAL MONTANA

CITY           SKY/WX    TMP DP  RH WIND       PRES   REMARKS
HAVRE          CLOUDY    60  59  96 E7        29.82F
LEWISTOWN      CLOUDY    58  56  93 SW6       29.90R
CHINOOK          N/A     61  61 100 CALM      29.82F
FORT BENTON      N/A     59  55  88 NW7       29.89R
$$

MTZ017>020-022>027-061-062-271200-
NORTHEAST MONTANA

CITY           SKY/WX    TMP DP  RH WIND       PRES   REMARKS
GLASGOW        CLOUDY    64  56  75 N22       29.81F
JORDAN           N/A     64  56  75 N18G30    29.75F
SIDNEY         CLOUDY    64  59  82 N8        29.77F
WOLF POINT     MOCLDY    68  60  75 E6        29.77R
MALTA            N/A     61  57  86 NE7       29.80S
PLENTYWOOD       N/A     63  61  94 NE13      29.79F
POPLAR           N/A     64  61  88 NE9       29.75F
SCOBEY           N/A     64  54  70 E14       29.77F
$$

MTZ028>42-056>058-271200-
SOUTHCENTRAL AND SOUTHEAST MONTANA

CITY           SKY/WX    TMP DP  RH WIND       PRES   REMARKS
BAKER          PTCLDY    65  53  65 SE20      29.77F
BILLINGS       PTCLDY    59  50  72 NW8       29.87R
LIVINGSTON     MOCLDY    56  52  86 W8        29.92R
MILES CITY     CLEAR     72  58  61 S17G26    29.70S
EKALAKA          N/A     66  55  67 SE26      29.75F
FORSYTH          N/A     66  54  63 W3        29.68S
LAUREL           N/A     62  48  60 NW9       29.85R
ROUNDUP          N/A     62  51  67 N15       29.77R
$$

REGIONAL REPORTS...DAKOTAS

CITY           SKY/WX    TMP DP  RH WIND       PRES   REMARKS
WILLISTON      LGT RAIN  65  57  75 NE12      29.82R
MINOT          MOCLDY    60  58  92 CALM      29.78F
DICKINSON      MOCLDY    64  54  69 S7        29.76F
BEACH          FAIR      66  55  68 SE9       29.81F
CROSBY         FAIR      59  59 100 E7        29.83R
BISMARCK       CLOUDY    73  55  53 S8        29.79R
GRAND FORKS    PTCLDY    65  63  93 SE5       29.86F
FARGO          CLEAR     71  66  84 SE8       29.89S
BUFFALO SD       N/A     61  55  81 SE12      29.75F
RAPID CITY     CLEAR     63  61  93 S9        29.84F
$$

REGIONAL REPORTS...WYOMING/IDAHO/WASHINGTON

CITY           SKY/WX    TMP DP  RH WIND       PRES   REMARKS
GILLETTE       CLEAR     67  53  61 SE9G23    29.79S
SHERIDAN       PTCLDY    56  45  66 NW15      29.76R
BUFFALO WY     PTCLDY    63  36  36 W6        29.81F
CODY           CLEAR     57  46  67 NE9       29.86R
YELLOWSTONE LA   N/A     41  36  82 NW3       30.04S
IDAHO FALLS    PTCLDY    58  46  64 SW16      29.86R
SALMON         CLOUDY    57  48  72 N15G22    29.89R THUNDER
BOISE          CLOUDY    60  44  55 W14       29.92R
SPOKANE        CLOUDY    57  43  59 E5        29.96R
$$

REGIONAL REPORTS...ALBERTA

CITY           SKY/WX    TMP DP  RH WIND       PRES   REMARKS
EDMONTON       PTCLDY    55  48  76 SW5       29.90R
CALGARY        MOCLDY    45  41  87 N3        29.95R
LETHBRIDGE     CLEAR     46  45  93 W6        29.93S
MEDICINE HAT   PTCLDY    52  48  87 S8        29.87R
WATERTON GATE    N/A     46  43  87 S8          N/A
MILK RIVER       N/A     50  46  87 NW6         N/A
ONEFOUR          N/A     52  48  87 W16         N/A
$$

REGIONAL REPORTS...SASKATCHEWAN

CITY           SKY/WX    TMP DP  RH WIND       PRES   REMARKS
SWIFT CURRENT  LGT RAIN  59  57  94 S8        29.90F
REGINA         LGT RAIN  61  55  82 W8        29.92R
SASKATOON      MOCLDY    59  52  77 S6        29.90R
CYPRESS HILLS    N/A     54  52  94 W6          N/A
VAL MARIE        N/A     59  57  94 NE16G22     N/A
ROCKGLEN         N/A     59  55  88 NW17G23     N/A
ASSINIBOIA       N/A     54  52  94 S8          N/A
$$



USA.gov is the U.S. government's official web portal to all federal, state and local government web resources and services.